Weather History for Lincoln, CA

Change the Weather History Date:

Monday, December 24, 2012

  Actual Average (KAUN) Record (KAUN)
Temperature  
Mean Temperature 44 °F -  
Max Temperature 51 °F 50 °F 66 °F (1960)
Min Temperature 37 °F 33 °F 23 °F (1990)
Degree Days  
Heating Degree Days 21    
Moisture  
Dew Point 42 °F    
Average Humidity 91    
Maximum Humidity 100    
Minimum Humidity 71    
Precipitation  
Precipitation 0.01 in - - ()
Sea Level Pressure  
Sea Level Pressure 30.13 in    
Wind  
Wind Speed 6 mph (WSW)    
Max Wind Speed 12 mph    
Max Gust Speed -    
Visibility 8 miles    
Events      
Averages and records for this station are not official NWS values.
T = Trace of Precipitation, MM = Missing Value Source: NWS Daily Summary

Daily Weather History Graph

Daily Weather History Graph

Search for Another Location

Airport:

Trip Planner

Search our weather history database for the weather conditions in past years. The results will help you decide how hot, cold, wet, or windy it might be!

Date:

Astronomy

Dec. 24, 2012 Rise Set
Actual Time 7:22 AM PST 4:48 PM PST
Civil Twilight 6:52 AM PST 5:18 PM PST
Nautical Twilight 6:18 AM PST 5:52 PM PST
Astronomical Twilight 5:46 AM PST 6:24 PM PST
Moon 2:18 PM PST (12/24) 4:06 AM PST (12/24)
Length of Visible Light 10h 26m
Length of Day
9h 26m
Waxing Gibbous, 89% of the Moon is Illuminated
Dec 24
Waxing Gibbous
Dec 28
Full
Jan 4
Last Quarter
Jan 11
New
Jan 18
First Quarter

Hourly Weather History & Observations

Time (PST) Temp. Windchill Dew Point Humidity Pressure Visibility Wind Dir Wind Speed Gust Speed Precip Events Conditions
12:15 AM 48.2 °F - 46.4 °F 93% 29.97 in 10.0 mi SSE 9.2 mph - N/A   Overcast
12:35 AM 48.2 °F - 46.4 °F 93% 29.98 in 10.0 mi SSE 11.5 mph - N/A   Overcast
12:55 AM 46.4 °F 41.9 °F 44.6 °F 93% 29.98 in 10.0 mi South 9.2 mph - N/A   Scattered Clouds
1:15 AM 46.4 °F 41.5 °F 44.6 °F 93% 29.99 in 10.0 mi South 10.4 mph - N/A   Mostly Cloudy
1:35 AM 46.4 °F 41.9 °F 44.6 °F 93% 30.00 in 10.0 mi SSE 9.2 mph - N/A   Overcast
1:55 AM 46.4 °F 41.9 °F 44.6 °F 93% 30.01 in 10.0 mi South 9.2 mph - N/A   Overcast
2:15 AM 46.4 °F 42.9 °F 44.6 °F 93% 30.02 in 10.0 mi SSE 6.9 mph - N/A   Mostly Cloudy
2:35 AM 44.6 °F 40.2 °F 44.6 °F 100% 30.02 in 10.0 mi SSE 8.1 mph - N/A   Mostly Cloudy
2:55 AM 44.6 °F 41.4 °F 42.8 °F 93% 30.02 in 10.0 mi SSE 5.8 mph - N/A   Mostly Cloudy
3:15 AM 44.6 °F 42.2 °F 44.6 °F 100% 30.03 in 10.0 mi SSE 4.6 mph - N/A   Mostly Cloudy
3:35 AM 44.6 °F 43.1 °F 42.8 °F 93% 30.04 in 7.0 mi SE 3.5 mph - N/A   Scattered Clouds
4:15 AM 44.6 °F 41.4 °F 42.8 °F 93% 30.04 in 10.0 mi SE 5.8 mph - N/A   Clear
4:35 AM 42.8 °F 38.6 °F 41.0 °F 93% 30.05 in 5.0 mi SE 6.9 mph - N/A   Clear
4:55 AM 42.8 °F 40.1 °F 41.0 °F 93% 30.06 in 5.0 mi NE 4.6 mph - N/A   Clear
5:15 AM 41.0 °F 39.0 °F 41.0 °F 100% 30.07 in 2.5 mi ESE 3.5 mph - N/A   Mostly Cloudy
5:35 AM 44.6 °F 42.2 °F 42.8 °F 93% 30.08 in 1.0 mi ESE 4.6 mph - N/A   Overcast
5:55 AM 44.6 °F 43.1 °F 42.8 °F 93% 30.10 in 0.8 mi ESE 3.5 mph - N/A   Overcast
6:15 AM 44.6 °F 43.1 °F 42.8 °F 93% 30.11 in 0.5 mi SE 3.5 mph - N/A   Overcast
6:35 AM 44.6 °F 43.1 °F 42.8 °F 93% 30.12 in 0.8 mi ESE 3.5 mph - N/A   Overcast
6:55 AM 42.8 °F 41.1 °F 42.8 °F 100% 30.14 in 4.0 mi SE 3.5 mph - N/A   Mostly Cloudy
7:15 AM 42.8 °F 41.1 °F 41.0 °F 93% 30.14 in 0.2 mi SW 3.5 mph - N/A   Overcast
7:35 AM 41.0 °F 37.1 °F 41.0 °F 100% 30.16 in 0.2 mi SW 5.8 mph - 0.01 in   Overcast
7:55 AM 42.8 °F - 41.0 °F 93% 30.16 in 0.8 mi Calm Calm - N/A   Overcast
8:15 AM 42.8 °F - 42.8 °F 100% 30.16 in 0.5 mi Calm Calm - N/A   Overcast
8:55 AM 42.8 °F 41.1 °F 42.8 °F 100% 30.19 in 1.2 mi NNW 3.5 mph - N/A   Overcast
9:15 AM 42.8 °F - 42.8 °F 100% 30.19 in 2.0 mi Calm Calm - N/A   Overcast
9:35 AM 44.6 °F - 42.8 °F 93% 30.20 in 2.5 mi Calm Calm - N/A   Overcast
9:55 AM 44.6 °F - 44.6 °F 100% 30.21 in 3.0 mi Calm Calm - N/A   Overcast
10:15 AM 46.4 °F - 44.6 °F 93% 30.22 in 5.0 mi Calm Calm - N/A   Overcast
10:55 AM 46.4 °F 43.5 °F 44.6 °F 93% 30.21 in 10.0 mi NW 5.8 mph - N/A   Mostly Cloudy
11:15 AM 48.2 °F - 44.6 °F 87% 30.20 in 10.0 mi WNW 5.8 mph - N/A   Mostly Cloudy
11:35 AM 48.2 °F - 44.6 °F 87% 30.20 in 10.0 mi WNW 6.9 mph - N/A   Mostly Cloudy
11:55 AM 50.0 °F - 44.6 °F 82% 30.19 in 10.0 mi NW 5.8 mph - N/A   Mostly Cloudy
12:15 PM 50.0 °F - 44.6 °F 82% 30.19 in 10.0 mi WNW 8.1 mph - N/A   Mostly Cloudy
12:35 PM 50.0 °F - 44.6 °F 82% 30.19 in 10.0 mi WNW 8.1 mph - N/A   Mostly Cloudy
12:55 PM 50.0 °F - 44.6 °F 82% 30.18 in 10.0 mi West 8.1 mph - N/A   Overcast
1:15 PM 50.0 °F - 44.6 °F 82% 30.17 in 10.0 mi WNW 5.8 mph - N/A   Scattered Clouds
1:35 PM 51.8 °F - 44.6 °F 76% 30.16 in 10.0 mi NW 5.8 mph - N/A   Clear
1:55 PM 51.8 °F - 44.6 °F 76% 30.16 in 10.0 mi WNW 6.9 mph - N/A   Clear
2:15 PM 51.8 °F - 44.6 °F 76% 30.17 in 10.0 mi West 9.2 mph - N/A   Clear
2:35 PM 51.8 °F - 42.8 °F 71% 30.17 in 10.0 mi WNW 9.2 mph - N/A   Clear
2:55 PM 51.8 °F - 42.8 °F 71% 30.16 in 10.0 mi WNW 6.9 mph - N/A   Clear
3:15 PM 51.8 °F - 42.8 °F 71% 30.17 in 10.0 mi WNW 8.1 mph - N/A   Clear
3:35 PM 50.0 °F - 41.0 °F 71% 30.16 in 10.0 mi NNW 6.9 mph - N/A   Clear
3:55 PM 48.2 °F - 41.0 °F 76% 30.16 in 10.0 mi NNW 5.8 mph - N/A   Clear
4:15 PM 46.4 °F 44.3 °F 41.0 °F 81% 30.16 in 10.0 mi NNW 4.6 mph - N/A   Clear
4:35 PM 44.6 °F 43.1 °F 41.0 °F 87% 30.16 in 10.0 mi NW 3.5 mph - N/A   Clear
4:55 PM 44.6 °F 42.2 °F 41.0 °F 87% 30.16 in 10.0 mi NW 4.6 mph - N/A   Clear
5:15 PM 44.6 °F 42.2 °F 39.2 °F 81% 30.16 in 10.0 mi NNW 4.6 mph - N/A   Clear
5:35 PM 44.6 °F - 41.0 °F 87% 30.16 in 10.0 mi Calm Calm - N/A   Clear
6:15 PM 42.8 °F - 41.0 °F 93% 30.16 in 10.0 mi Calm Calm - N/A   Clear
6:35 PM 42.8 °F 41.1 °F 41.0 °F 93% 30.16 in 10.0 mi North 3.5 mph - N/A   Clear
6:55 PM 41.0 °F 39.0 °F 39.2 °F 93% 30.15 in 10.0 mi NNE 3.5 mph - N/A   Clear
7:15 PM 41.0 °F 39.0 °F 39.2 °F 93% 30.16 in 10.0 mi NNE 3.5 mph - N/A   Clear
7:35 PM 41.0 °F - 39.2 °F 93% 30.16 in 10.0 mi Calm Calm - N/A   Clear
8:15 PM 41.0 °F - 41.0 °F 100% 30.14 in 10.0 mi Calm Calm - N/A   Clear
8:35 PM 41.0 °F - 39.2 °F 93% 30.14 in 10.0 mi Calm Calm - N/A   Clear
8:55 PM 41.0 °F - 39.2 °F 93% 30.15 in 10.0 mi Calm Calm - N/A   Clear
9:15 PM 41.0 °F - 39.2 °F 93% 30.14 in 4.0 mi Calm Calm - N/A   Clear
9:35 PM 39.2 °F - 37.4 °F 93% 30.15 in 0.8 mi Calm Calm - N/A   Unknown
9:55 PM 39.2 °F - 39.2 °F 100% 30.15 in 3.0 mi Calm Calm - N/A   Scattered Clouds
10:15 PM 37.4 °F - 37.4 °F 100% 30.15 in 5.0 mi Calm Calm - N/A   Mostly Cloudy
10:35 PM 37.4 °F 34.9 °F 37.4 °F 100% 30.15 in 7.0 mi ENE 3.5 mph - N/A   Scattered Clouds
10:55 PM 37.4 °F - 37.4 °F 100% 30.15 in 10.0 mi Calm Calm - N/A   Clear
11:15 PM 39.2 °F - 37.4 °F 93% 30.16 in 10.0 mi Calm Calm - N/A   Clear
11:35 PM 39.2 °F 37.0 °F 37.4 °F 93% 30.15 in 10.0 mi SSE 3.5 mph - N/A   Clear
11:55 PM 39.2 °F 37.0 °F 37.4 °F 93% 30.15 in 10.0 mi SSE 3.5 mph - N/A   Clear